SV7RNH Weather Reports


time (UTC)temp
C
wind
direction
speed
KPH
gust
KPH
rain 1hr
cm
rain 24hr
cm
rain mn
cm
humidity
%
barometer
mb
20260506162503 21 242 6.4 11.3 0.00 0.00 0.00 53 1015.4
20260506162003 21 246 3.2 11.3 0.00 0.00 0.00 51 1015.6
20260506161504 22 262 6.4 11.3 0.00 0.00 0.00 49 1015.4
20260506161003 22 0 0.0 11.3 0.00 0.00 0.00 49 1015.5
20260506160503 22 266 3.2 11.3 0.00 0.00 0.00 48 1015.5
20260506160004 22 290 3.2 9.7 0.00 0.00 0.00 47 1015.5
20260506155504 22 256 3.2 9.7 0.00 0.00 0.00 45 1015.4
20260506155004 23 221 1.6 8.0 0.00 0.00 0.00 43 1015.5
20260506154503 23 185 1.6 6.4 0.00 0.00 0.00 42 1015.6
20260506154003 23 0 0.0 6.4 0.00 0.00 0.00 40 1015.5
20260506153504 23 287 1.6 8.0 0.00 0.00 0.00 39 1015.7
20260506153003 24 246 3.2 8.0 0.00 0.00 0.00 38 1015.7
20260506152503 25 234 3.2 8.0 0.00 0.00 0.00 36 1015.6
20260506152003 25 252 1.6 11.3 0.00 0.00 0.00 34 1015.7
20260506151504 25 260 3.2 11.3 0.00 0.00 0.00 34 1015.6
20260506151003 26 265 6.4 11.3 0.00 0.00 0.00 33 1015.6
20260506150503 26 260 3.2 11.3 0.00 0.00 0.00 31 1015.6
20260506150004 26 246 3.2 11.3 0.00 0.00 0.00 31 1015.7
20260506145503 27 141 6.4 11.3 0.00 0.00 0.00 28 1015.6
20260506145003 26 161 1.6 8.0 0.00 0.00 0.00 28 1015.7
20260506144504 26 242 1.6 12.9 0.00 0.00 0.00 29 1015.7
20260506144003 26 280 4.8 12.9 0.00 0.00 0.00 30 1015.8
20260506143503 26 325 3.2 16.1 0.00 0.00 0.00 30 1015.8
20260506143003 26 287 3.2 16.1 0.00 0.00 0.00 31 1015.7
20260506142504 26 263 6.4 12.9 0.00 0.00 0.00 29 1015.7
20260506142004 26 257 3.2 14.5 0.00 0.00 0.00 29 1015.8
20260506141503 27 271 6.4 16.1 0.00 0.00 0.00 28 1015.7
20260506141003 27 278 3.2 16.1 0.00 0.00 0.00 27 1015.7
20260506140504 27 270 6.4 12.9 0.00 0.00 0.00 26 1015.8
20260506140004 27 257 3.2 16.1 0.00 0.00 0.00 27 1015.7
20260506135503 27 237 3.2 16.1 0.00 0.00 0.00 28 1015.9
20260506135004 27 248 4.8 12.9 0.00 0.00 0.00 26 1015.9
20260506134504 28 245 3.2 12.9 0.00 0.00 0.00 27 1015.9
20260506134003 28 238 1.6 12.9 0.00 0.00 0.00 27 1015.7
20260506133504 27 266 3.2 12.9 0.00 0.00 0.00 28 1015.9
20260506133004 28 257 6.4 12.9 0.00 0.00 0.00 27 1015.8
20260506132503 28 293 4.8 11.3 0.00 0.00 0.00 25 1015.9
20260506132003 28 284 4.8 12.9 0.00 0.00 0.00 25 1016.1
20260506131504 27 265 3.2 14.5 0.00 0.00 0.00 26 1016.1
20260506131003 28 280 6.4 14.5 0.00 0.00 0.00 24 1016.1
20260506130503 28 286 6.4 12.9 0.00 0.00 0.00 24 1016.1
20260506130003 28 271 3.2 12.9 0.00 0.00 0.00 23 1016.1
20260506125504 28 267 6.4 12.9 0.00 0.00 0.00 25 1016.2
20260506125003 28 216 1.6 12.9 0.00 0.00 0.00 22 1016.1
20260506124503 28 195 4.8 12.9 0.00 0.00 0.00 20 1016.2
20260506124004 28 241 4.8 12.9 0.00 0.00 0.00 22 1016.2
20260506123504 28 252 6.4 12.9 0.00 0.00 0.00 21 1016.3
20260506123003 28 263 3.2 12.9 0.00 0.00 0.00 20 1016.3
20260506122503 29 285 3.2 11.3 0.00 0.00 0.00 19 1016.4
20260506122004 28 197 3.2 11.3 0.00 0.00 0.00 19 1016.4
20260506121503 28 172 3.2 12.9 0.00 0.00 0.00 20 1016.5
20260506121003 28 299 6.4 12.9 0.00 0.00 0.00 20 1016.6
20260506120503 28 0 0.0 12.9 0.00 0.00 0.00 23 1016.7
20260506120004 28 211 6.4 12.9 0.00 0.00 0.00 22 1016.6
20260506115503 27 135 3.2 11.3 0.00 0.00 0.00 21 1016.7
20260506115003 27 142 6.4 11.3 0.00 0.00 0.00 21 1016.7
20260506114504 27 142 4.8 12.9 0.00 0.00 0.00 22 1016.7
20260506114003 27 140 4.8 14.5 0.00 0.00 0.00 22 1016.7
20260506113503 27 145 3.2 14.5 0.00 0.00 0.00 21 1016.8
20260506113003 27 146 6.4 12.9 0.00 0.00 0.00 20 1016.9
20260506112504 27 156 3.2 14.5 0.00 0.00 0.00 20 1016.8
20260506112003 27 146 3.2 14.5 0.00 0.00 0.00 21 1016.9
20260506111503 27 126 3.2 12.9 0.00 0.00 0.00 21 1016.8
20260506111003 27 121 3.2 12.9 0.00 0.00 0.00 20 1017.0
20260506110504 27 133 6.4 12.9 0.00 0.00 0.00 18 1017.0
20260506110003 27 201 6.4 11.3 0.00 0.00 0.00 15 1017.0
20260506105503 27 267 1.6 11.3 0.00 0.00 0.00 14 1016.9
20260506105004 27 244 3.2 11.3 0.00 0.00 0.00 13 1016.8
20260506104504 27 143 1.6 11.3 0.00 0.00 0.00 14 1016.9
20260506104003 27 151 3.2 12.9 0.00 0.00 0.00 14 1016.9
20260506103503 27 152 3.2 12.9 0.00 0.00 0.00 17 1017.0
20260506103004 27 168 6.4 12.9 0.00 0.00 0.00 15 1017.1
20260506102503 27 224 3.2 12.9 0.00 0.00 0.00 17 1017.1
20260506102004 27 193 3.2 11.3 0.00 0.00 0.00 19 1017.1
20260506101503 27 146 4.8 12.9 0.00 0.00 0.00 20 1017.1
20260506101003 27 157 3.2 12.9 0.00 0.00 0.00 20 1017.2
20260506100504 27 184 6.4 12.9 0.00 0.00 0.00 18 1017.2
20260506100004 27 154 3.2 12.9 0.00 0.00 0.00 17 1017.4
20260506095503 27 161 4.8 12.9 0.00 0.00 0.00 15 1017.4
20260506095004 28 171 3.2 8.0 0.00 0.00 0.00 14 1017.4
20260506094503 28 128 1.6 6.4 0.00 0.00 0.00 13 1017.3
20260506094003 27 132 3.2 8.0 0.00 0.00 0.00 12 1017.4
20260506093504 27 0 0.0 8.0 0.00 0.00 0.00 12 1017.3
20260506093004 27 135 3.2 8.0 0.00 0.00 0.00 12 1017.4
20260506092503 27 146 3.2 6.4 0.00 0.00 0.00 14 1017.4
20260506092003 27 169 3.2 6.4 0.00 0.00 0.00 15 1017.5
20260506091504 27 206 1.6 6.4 0.00 0.00 0.00 18 1017.4
20260506091003 26 0 0.0 9.7 0.00 0.00 0.00 20 1017.4
20260506090503 26 153 1.6 11.3 0.00 0.00 0.00 19 1017.4
20260506090003 26 178 1.6 11.3 0.00 0.00 0.00 19 1017.4
20260506085504 26 246 3.2 8.0 0.00 0.00 0.00 22 1017.3
20260506085003 26 183 3.2 8.0 0.00 0.00 0.00 26 1017.4
20260506084503 26 178 3.2 8.0 0.00 0.00 0.00 27 1017.4
20260506084004 25 187 3.2 8.0 0.00 0.00 0.00 27 1017.3
20260506083503 25 148 4.8 11.3 0.00 0.00 0.00 31 1017.3
20260506083003 25 131 3.2 11.3 0.00 0.00 0.00 32 1017.2
20260506082503 25 176 3.2 11.3 0.00 0.00 0.00 33 1017.3
20260506082004 25 246 1.6 8.0 0.00 0.00 0.00 34 1017.2
20260506081503 24 213 3.2 8.0 0.00 0.00 0.00 34 1017.2
20260506081003 24 207 3.2 8.0 0.00 0.00 0.00 34 1017.3
20260506080503 24 240 3.2 8.0 0.00 0.00 0.00 35 1017.3
20260506073504 23 243 1.6 8.0 0.00 0.00 0.00 37 1017.3
20260506073003 23 229 1.6 8.0 0.00 0.00 0.00 38 1017.1
20260506072504 23 0 0.0 6.4 0.00 0.00 0.00 38 1017.2
20260506072004 23 1 3.2 6.4 0.00 0.00 0.00 39 1017.2
20260506071503 23 0 0.0 6.4 0.00 0.00 0.00 39 1017.2
20260506071003 23 344 3.2 6.4 0.00 0.00 0.00 39 1017.2
20260506070504 23 311 3.2 6.4 0.00 0.00 0.00 40 1017.2
20260506062505 21 225 1.6 6.4 0.00 0.00 0.00 42 1017.5
20260506062003 21 225 3.2 6.4 0.00 0.00 0.00 42 1017.5
20260506061504 22 225 1.6 4.8 0.00 0.00 0.00 42 1017.5
20260506061003 21 225 1.6 4.8 0.00 0.00 0.00 43 1017.4
20260506060504 21 0 0.0 4.8 0.00 0.00 0.00 44 1017.4
20260506051003 19 0 0.0 4.8 0.00 0.00 0.00 46 1017.6
20260506050503 19 0 0.0 4.8 0.00 0.00 0.00 45 1017.5
20260506045003 18 0 0.0 3.2 0.00 0.00 0.00 46 1017.4
20260506044503 18 225 1.6 3.2 0.00 0.00 0.00 48 1017.3
20260506044004 18 225 1.6 4.8 0.00 0.00 0.00 49 1017.3
20260506043504 17 0 0.0 4.8 0.00 0.00 0.00 50 1017.2
20260506043003 17 229 1.6 4.8 0.00 0.00 0.00 52 1017.2
20260506042503 16 0 0.0 6.4 0.00 0.00 0.00 53 1017.1
20260506042004 15 0 0.0 6.4 0.00 0.00 0.00 53 1017.1
20260506041504 15 0 0.0 3.2 0.00 0.00 0.00 53 1017.0
20260506041003 15 0 0.0 3.2 0.00 0.00 0.00 53 1017.0
20260506040503 15 0 0.0 3.2 0.00 0.00 0.00 54 1017.0
20260506040004 15 0 0.0 3.2 0.00 0.00 0.00 54 1016.9
20260506035504 15 85 1.6 4.8 0.00 0.00 0.00 54 1016.7
20260506035003 15 0 0.0 8.0 0.00 0.00 0.00 54 1016.7
20260506034503 15 310 1.6 8.0 0.00 0.00 0.00 54 1016.7
20260506034004 15 228 3.2 6.4 0.00 0.00 0.00 54 1016.7
20260506033504 15 0 0.0 6.4 0.00 0.00 0.00 53 1016.7
20260506033004 15 0 0.0 6.4 0.00 0.00 0.00 53 1016.7
20260506032503 15 0 0.0 3.2 0.00 0.00 0.00 53 1016.8
20260506032004 15 356 1.6 8.0 0.00 0.00 0.00 53 1016.8
20260506031503 15 347 1.6 8.0 0.00 0.00 0.00 53 1016.7
20260506031004 15 0 0.0 6.4 0.00 0.00 0.00 53 1016.7
20260506030503 15 0 0.0 8.0 0.00 0.00 0.00 52 1016.7
20260506030003 15 0 0.0 8.0 0.00 0.00 0.00 52 1016.6
20260506025503 15 26 3.2 11.3 0.00 0.00 0.00 52 1016.7
20260506025003 15 37 1.6 11.3 0.00 0.00 0.00 51 1016.6
20260506024503 15 51 3.2 11.3 0.00 0.00 0.00 51 1016.6
20260506024004 15 19 3.2 6.4 0.00 0.00 0.00 51 1016.7
20260506023503 15 239 3.2 6.4 0.00 0.00 0.00 51 1016.5
20260506023004 15 0 0.0 6.4 0.00 0.00 0.00 50 1016.6
20260506022503 15 230 1.6 4.8 0.00 0.00 0.00 49 1016.6
20260506022003 15 0 0.0 4.8 0.00 0.00 0.00 48 1016.7
20260506021503 15 0 0.0 4.8 0.00 0.00 0.00 47 1016.7
20260506021004 15 42 1.6 4.8 0.00 0.00 0.00 46 1016.6
20260506020504 15 0 0.0 3.2 0.00 0.00 0.00 45 1016.7
20260506020003 16 36 1.6 3.2 0.00 0.00 0.00 45 1016.6
20260506015503 16 0 0.0 3.2 0.00 0.00 0.00 44 1016.6
20260506015003 16 0 0.0 3.2 0.00 0.00 0.00 44 1016.6
20260506014504 16 98 1.6 3.2 0.00 0.00 0.00 44 1016.6
20260506014003 16 0 0.0 4.8 0.00 0.00 0.00 43 1016.5
20260506013503 16 31 1.6 4.8 0.00 0.00 0.00 42 1016.5
20260506013003 16 16 3.2 4.8 0.00 0.00 0.00 42 1016.6
20260506012504 16 352 1.6 4.8 0.00 0.00 0.00 42 1016.6
20260506012004 16 0 0.0 3.2 0.00 0.00 0.00 42 1016.6
20260506011503 16 0 0.0 3.2 0.00 0.00 0.00 42 1016.5
20260506011003 16 0 0.0 3.2 0.00 0.00 0.00 42 1016.5
20260506010503 17 0 0.0 3.2 0.00 0.00 0.00 42 1016.4
20260506010004 17 0 0.0 3.2 0.00 0.00 0.00 42 1016.4
20260506005503 17 262 1.6 4.8 0.00 0.00 0.00 43 1016.4
20260506005003 16 0 0.0 8.0 0.00 0.00 0.00 43 1016.4
20260506004503 16 0 0.0 8.0 0.00 0.00 0.00 44 1016.4
20260506004004 16 251 3.2 9.7 0.00 0.00 0.00 45 1016.3
20260506003503 17 282 4.8 9.7 0.00 0.00 0.00 45 1016.3
20260506003003 17 256 1.6 6.4 0.00 0.00 0.00 43 1016.2
20260506002503 17 0 0.0 4.8 0.00 0.00 0.00 42 1016.3
20260506002004 17 0 0.0 4.8 0.00 0.00 0.00 42 1016.1
20260506001504 17 225 3.2 4.8 0.00 0.00 0.00 42 1016.2
20260506001003 17 0 0.0 4.8 0.00 0.00 0.00 42 1016.2
20260506000503 17 0 0.0 6.4 0.00 0.00 0.00 41 1016.2
20260506000003 17 0 0.0 6.4 0.00 0.00 0.00 41 1016.2
20260505235503 17 266 1.6 6.4 0.00 0.00 0.00 40 1016.2
20260505235004 18 0 0.0 6.4 0.00 0.00 0.00 39 1016.2
20260505234504 18 35 3.2 6.4 0.00 0.00 0.00 39 1016.2
20260505234003 18 0 0.0 4.8 0.00 0.00 0.00 39 1016.1
20260505233503 18 335 1.6 4.8 0.00 0.00 0.00 39 1016.2
20260505233003 18 0 0.0 9.7 0.00 0.00 0.00 39 1016.2
20260505232504 18 0 0.0 9.7 0.00 0.00 0.00 39 1016.1
20260505232003 18 2 1.6 9.7 0.00 0.00 0.00 39 1016.1
20260505231503 18 0 0.0 6.4 0.00 0.00 0.00 40 1016.1
20260505231003 18 0 0.0 6.4 0.00 0.00 0.00 40 1016.4
20260505230504 18 43 1.6 8.0 0.00 0.00 0.00 40 1016.2
20260505230004 18 35 1.6 12.9 0.00 0.00 0.00 39 1016.2
20260505225504 18 13 1.6 12.9 0.00 0.00 0.00 39 1016.2
20260505225003 18 12 6.4 12.9 0.00 0.00 0.00 39 1016.2
20260505224504 18 25 3.2 9.7 0.00 0.00 0.00 39 1016.2
20260505224003 18 27 1.6 8.0 0.00 0.00 0.00 39 1016.3
20260505223503 18 0 0.0 6.4 0.00 0.00 0.00 39 1016.2
20260505223003 18 14 1.6 6.4 0.00 0.00 0.00 39 1016.4
20260505222504 18 26 1.6 6.4 0.00 0.00 0.00 39 1016.3
20260505222004 18 23 1.6 8.0 0.00 0.00 0.00 39 1016.1
20260505221503 18 30 3.2 8.0 0.00 0.00 0.00 38 1016.1
20260505221003 18 42 3.2 11.3 0.00 0.00 0.00 39 1016.2
20260505220504 18 0 0.0 11.3 0.00 0.00 0.00 40 1016.2
20260505220004 18 36 3.2 11.3 0.00 0.00 0.00 42 1016.2
20260505215503 18 27 3.2 6.4 0.00 0.00 0.00 43 1016.0
20260505215003 18 0 0.0 6.4 0.00 0.00 0.00 43 1016.1
20260505214503 18 25 3.2 6.4 0.00 0.00 0.00 43 1016.1
20260505214004 18 324 1.6 6.4 0.00 0.00 0.00 43 1015.9
20260505213503 18 0 0.0 6.4 0.00 0.00 0.00 43 1015.8
20260505213003 18 62 1.6 6.4 0.00 0.00 0.00 43 1016.0
20260505212504 18 45 3.2 9.7 0.00 0.00 0.00 43 1015.9
20260505212003 19 44 1.6 9.7 0.00 0.00 0.00 43 1016.0
20260505211503 19 46 1.6 8.0 0.00 0.00 0.00 42 1016.0
20260505211003 19 223 3.2 6.4 0.00 0.00 0.00 42 1015.9